When you browse on this site, cookies collect data to enhance your experience and personalize the content and advertising you see.
Visit our Privacy Policy to learn more. By continuing to use the site, you agree to this use of cookies and data.
  • In Österreich
  • Länderverzeichnis
  • Für 7 Tage
  • Wassertemperatur
  • Wetterkarte
  • News
  • Widgets
  • user-avatar
    Anmelden

    Stündliche Wetter Zacualtipán

    Heute, 22 August, Donnerstag

    Zeit Temperatur Niederschläge Wind Luftdruck Luftfeuchtigkeit
    00:00 +15°C° 0 mm 1 m/S 617 mmHg 93%
    01:00 +15°C° 0 mm 1 m/S 617 mmHg 93%
    02:00 +14°C° 0 mm 1 m/S 616 mmHg 92%
    03:00 +14°C° 0 mm 1 m/S 616 mmHg 91%
    04:00 +14°C° 0 mm 1 m/S 616 mmHg 91%
    05:00 +14°C° 0 mm 1 m/S 616 mmHg 90%
    06:00 +18°C° 0 mm 1 m/S 617 mmHg 83%
    07:00 +18°C° 0 mm 0 m/S 618 mmHg 75%
    08:00 +20°C° 0 mm 0 m/S 619 mmHg 68%
    09:00 +23°C° 0.1 mm 1 m/S 619 mmHg 65%
    10:00 +24°C° 0.1 mm 1 m/S 619 mmHg 62%
    11:00 +25°C° 0.1 mm 2 m/S 619 mmHg 59%
    12:00 +24°C° 0.7 mm 2 m/S 619 mmHg 64%
    13:00 +24°C° 0.7 mm 2 m/S 618 mmHg 69%
    14:00 +22°C° 0.7 mm 3 m/S 617 mmHg 74%
    15:00 +23°C° 0.6 mm 2 m/S 617 mmHg 78%
    16:00 +21°C° 0.6 mm 2 m/S 617 mmHg 82%
    17:00 +21°C° 0.6 mm 1 m/S 616 mmHg 85%
    18:00 +20°C° 0.2 mm 1 m/S 617 mmHg 89%
    19:00 +19°C° 0.2 mm 1 m/S 617 mmHg 92%
    20:00 +16°C° 0.2 mm 0 m/S 617 mmHg 95%
    21:00 +15°C° 0 mm 0 m/S 617 mmHg 94%
    22:00 +15°C° 0 mm 0 m/S 617 mmHg 92%
    23:00 +15°C° 0 mm 0 m/S 617 mmHg 91%

    Morgen, 23 August, Freitag

    Zeit Temperatur Niederschläge Wind Luftdruck Luftfeuchtigkeit
    00:00 +16°C° 0 mm 1 m/S 616 mmHg 90%
    01:00 +16°C° 0 mm 1 m/S 616 mmHg 89%
    02:00 +16°C° 0 mm 1 m/S 616 mmHg 87%
    03:00 +15°C° 0 mm 1 m/S 616 mmHg 87%
    04:00 +15°C° 0 mm 1 m/S 616 mmHg 87%
    05:00 +15°C° 0 mm 1 m/S 616 mmHg 87%
    06:00 +18°C° 0 mm 1 m/S 617 mmHg 81%
    07:00 +20°C° 0 mm 1 m/S 618 mmHg 74%
    08:00 +20°C° 0 mm 0 m/S 619 mmHg 67%
    09:00 +23°C° 0 mm 1 m/S 619 mmHg 64%
    10:00 +24°C° 0 mm 1 m/S 619 mmHg 62%
    11:00 +25°C° 0 mm 2 m/S 619 mmHg 59%
    12:00 +25°C° 0.3 mm 2 m/S 619 mmHg 64%
    13:00 +25°C° 0.3 mm 2 m/S 618 mmHg 68%
    14:00 +24°C° 0.3 mm 3 m/S 618 mmHg 73%
    15:00 +23°C° 0.7 mm 2 m/S 617 mmHg 77%
    16:00 +23°C° 0.7 mm 2 m/S 617 mmHg 81%
    17:00 +22°C° 0.7 mm 1 m/S 616 mmHg 85%
    18:00 +21°C° 0.3 mm 1 m/S 617 mmHg 87%
    19:00 +19°C° 0.3 mm 1 m/S 617 mmHg 89%
    20:00 +18°C° 0.3 mm 1 m/S 617 mmHg 90%
    21:00 +18°C° 0.1 mm 1 m/S 617 mmHg 89%
    22:00 +18°C° 0.1 mm 1 m/S 617 mmHg 88%
    23:00 +18°C° 0.1 mm 1 m/S 617 mmHg 87%

    übermorgen, 24 August, Samstag

    Zeit Temperatur Niederschläge Wind Luftdruck Luftfeuchtigkeit
    00:00 +16°C° 0 mm 1 m/S 617 mmHg 86%
    01:00 +16°C° 0 mm 1 m/S 616 mmHg 86%
    02:00 +16°C° 0 mm 1 m/S 616 mmHg 85%
    03:00 +16°C° 0 mm 1 m/S 616 mmHg 85%
    04:00 +16°C° 0 mm 1 m/S 616 mmHg 85%
    05:00 +16°C° 0 mm 1 m/S 616 mmHg 84%
    06:00 +19°C° 0 mm 1 m/S 617 mmHg 78%
    07:00 +20°C° 0 mm 1 m/S 618 mmHg 72%
    08:00 +20°C° 0 mm 0 m/S 619 mmHg 66%
    09:00 +23°C° 0 mm 1 m/S 620 mmHg 62%
    10:00 +25°C° 0 mm 1 m/S 620 mmHg 58%
    11:00 +26°C° 0 mm 1 m/S 620 mmHg 54%
    12:00 +26°C° 0.4 mm 2 m/S 619 mmHg 59%
    13:00 +26°C° 0.4 mm 2 m/S 618 mmHg 64%
    14:00 +25°C° 0.4 mm 2 m/S 618 mmHg 69%
    15:00 +24°C° 1 mm 2 m/S 617 mmHg 75%
    16:00 +23°C° 1 mm 2 m/S 617 mmHg 82%
    17:00 +22°C° 1 mm 1 m/S 616 mmHg 88%
    18:00 +21°C° 0.8 mm 1 m/S 617 mmHg 89%
    19:00 +20°C° 0.8 mm 1 m/S 617 mmHg 90%
    20:00 +19°C° 0.8 mm 1 m/S 618 mmHg 91%
    21:00 +19°C° 0.1 mm 1 m/S 618 mmHg 88%
    22:00 +19°C° 0.1 mm 1 m/S 617 mmHg 86%
    23:00 +19°C° 0.1 mm 1 m/S 617 mmHg 84%

    25 August, Sonntag

    Zeit Temperatur Niederschläge Wind Luftdruck Luftfeuchtigkeit
    00:00 +18°C° 0 mm 1 m/S 617 mmHg 84%
    01:00 +18°C° 0 mm 1 m/S 616 mmHg 85%
    02:00 +16°C° 0 mm 0 m/S 616 mmHg 86%
    03:00 +15°C° 0 mm 0 m/S 616 mmHg 86%
    04:00 +16°C° 0 mm 1 m/S 616 mmHg 87%
    05:00 +16°C° 0 mm 1 m/S 616 mmHg 87%
    06:00 +19°C° 0 mm 1 m/S 617 mmHg 81%
    07:00 +21°C° 0 mm 1 m/S 618 mmHg 75%
    08:00 +21°C° 0 mm 0 m/S 619 mmHg 69%
    09:00 +24°C° 0 mm 1 m/S 619 mmHg 66%
    10:00 +25°C° 0 mm 1 m/S 619 mmHg 62%
    11:00 +27°C° 0 mm 2 m/S 619 mmHg 58%
    12:00 +26°C° 0.6 mm 2 m/S 618 mmHg 65%
    13:00 +25°C° 0.6 mm 2 m/S 617 mmHg 72%
    14:00 +24°C° 0.6 mm 2 m/S 616 mmHg 79%
    15:00 +24°C° 1.1 mm 2 m/S 616 mmHg 82%
    16:00 +23°C° 1.1 mm 1 m/S 616 mmHg 85%
    17:00 +22°C° 1.1 mm 1 m/S 616 mmHg 88%
    18:00 +21°C° 1.3 mm 1 m/S 616 mmHg 90%
    19:00 +20°C° 1.3 mm 1 m/S 616 mmHg 92%
    20:00 +18°C° 1.3 mm 0 m/S 616 mmHg 94%
    21:00 +17°C° 1 mm 0 m/S 616 mmHg 93%
    22:00 +17°C° 1 mm 0 m/S 616 mmHg 92%
    23:00 +17°C° 1 mm 0 m/S 616 mmHg 91%

    26 August, Montag

    Zeit Temperatur Niederschläge Wind Luftdruck Luftfeuchtigkeit
    00:00 +17°C° 0.6 mm 0 m/S 616 mmHg 91%
    01:00 +17°C° 0.6 mm 0 m/S 616 mmHg 91%
    02:00 +19°C° 0.6 mm 1 m/S 615 mmHg 91%
    03:00 +18°C° 1.2 mm 1 m/S 615 mmHg 92%
    04:00 +18°C° 1.2 mm 1 m/S 615 mmHg 92%
    05:00 +18°C° 1.2 mm 1 m/S 615 mmHg 92%
    06:00 +17°C° 0.2 mm 0 m/S 616 mmHg 87%
    07:00 +18°C° 0.2 mm 0 m/S 617 mmHg 83%
    08:00 +20°C° 0.2 mm 0 m/S 617 mmHg 78%
    09:00 +23°C° 0.5 mm 1 m/S 617 mmHg 75%
    10:00 +24°C° 0.5 mm 1 m/S 617 mmHg 72%
    11:00 +25°C° 0.5 mm 2 m/S 618 mmHg 69%
    12:00 +24°C° 1 mm 2 m/S 617 mmHg 74%
    13:00 +23°C° 1 mm 2 m/S 616 mmHg 79%
    14:00 +23°C° 1 mm 2 m/S 615 mmHg 84%
    15:00 +21°C° 0.9 mm 2 m/S 615 mmHg 87%
    16:00 +22°C° 0.9 mm 1 m/S 615 mmHg 89%
    17:00 +21°C° 0.9 mm 1 m/S 615 mmHg 92%
    18:00 +21°C° 1.4 mm 1 m/S 615 mmHg 92%
    19:00 +20°C° 1.4 mm 1 m/S 616 mmHg 92%
    20:00 +17°C° 1.4 mm 0 m/S 616 mmHg 92%
    21:00 +17°C° 2.2 mm 0 m/S 616 mmHg 92%
    22:00 +16°C° 2.2 mm 0 m/S 616 mmHg 92%
    23:00 +16°C° 2.2 mm 0 m/S 616 mmHg 92%

    27 August, Dienstag

    Zeit Temperatur Niederschläge Wind Luftdruck Luftfeuchtigkeit
    00:00 +16°C° 0.5 mm 0 m/S 616 mmHg 92%
    01:00 +16°C° 0.5 mm 1 m/S 616 mmHg 92%
    02:00 +16°C° 0.5 mm 1 m/S 615 mmHg 92%
    03:00 +16°C° 0 mm 1 m/S 615 mmHg 92%
    04:00 +16°C° 0 mm 1 m/S 616 mmHg 91%
    05:00 +16°C° 0 mm 1 m/S 616 mmHg 91%
    06:00 +16°C° 0 mm 0 m/S 616 mmHg 87%
    07:00 +18°C° 0 mm 0 m/S 617 mmHg 83%
    08:00 +19°C° 0 mm 0 m/S 618 mmHg 79%
    09:00 +22°C° 0.4 mm 1 m/S 618 mmHg 77%
    10:00 +23°C° 0.4 mm 2 m/S 618 mmHg 75%
    11:00 +24°C° 0.4 mm 2 m/S 618 mmHg 73%
    12:00 +23°C° 1.3 mm 2 m/S 617 mmHg 76%
    13:00 +23°C° 1.3 mm 2 m/S 616 mmHg 80%
    14:00 +21°C° 1.3 mm 2 m/S 616 mmHg 83%
    15:00 +21°C° 0.8 mm 2 m/S 616 mmHg 86%
    16:00 +20°C° 0.8 mm 2 m/S 616 mmHg 89%
    17:00 +20°C° 0.8 mm 1 m/S 616 mmHg 92%
    18:00 +20°C° 0.2 mm 1 m/S 616 mmHg 93%
    19:00 +19°C° 0.2 mm 1 m/S 616 mmHg 95%
    20:00 +18°C° 0.2 mm 1 m/S 616 mmHg 96%
    21:00 +16°C° 0.9 mm 0 m/S 617 mmHg 96%
    22:00 +16°C° 0.9 mm 0 m/S 617 mmHg 95%
    23:00 +15°C° 0.9 mm 0 m/S 617 mmHg 94%
    Mehr zeigen